[[{"header":{"parameterUnit":"m.s-1","parameterCategory":1,"la1":30.2991,"la2":30.254,"lo1":-89.0895,"lo2":-89.0444,"dy":0.0017,"dx":0.0017,"nx":28,"ny":28,"refTime":"2026-01-04T09:00:00:Z","depth":0,"parameterNumber":2,"parameterNumberName":"U-component_of_WINDS"},"data":[0,0,0,0,0,0,0,0,0,0,0,0,0,0,0,0,0,0,0,0,0,0,0,0,0,0,0,0,0,0,0,0,0,0,0,0,0,0,0,0,0,0,0,0,0,0,0,0,0,0,0,0,0,0,0,0,0,0,-1.9042,-1.9044,0,-1.9202,-1.9204,-1.9206,-1.9225,-1.9224,-1.9222,-1.9221,-1.9383,-1.9389,-1.9394,0,0,0,0,0,0,0,0,0,0,0,0,0,-1.8753,-1.8758,-1.9042,-1.9044,-1.9046,-1.9202,-1.9204,-1.9207,-1.9226,-1.9224,-1.9222,-1.922,-1.9381,-1.9388,-1.9395,0,0,0,0,0,0,0,0,0,0,0,0,0,-1.8892,-1.876,-1.9042,-1.9075,-1.9079,-1.9202,-1.9204,-1.9207,-1.9226,-1.9224,-1.9221,-1.9219,-1.9379,-1.9387,-1.9396,-1.9496,0,0,-1.9422,-1.9426,0,0,0,0,0,0,0,0,-1.8884,-1.8903,-1.9068,-1.9073,-1.9078,-1.9192,-1.9162,-1.9304,-1.9227,-1.917,-1.9221,-1.9218,-1.9321,-1.9334,-1.9369,-1.9504,-1.9511,-1.9423,-1.9428,-1.9432,-1.9434,0,0,0,0,0,0,0,-1.8875,-1.8896,-1.9105,-1.907,-1.9076,-1.9081,-1.9098,-1.9189,-1.9257,-1.9175,-1.9177,-1.9196,-1.9323,-1.9361,-1.9373,-1.9513,-1.9423,-1.943,-1.9436,-1.9439,-1.974,-1.9743,0,0,0,0,0,0,-1.8859,-1.8888,-1.91,-1.911,-1.8973,-1.9088,-1.9108,-1.9157,-1.9256,-1.9269,-1.9197,-1.9196,-1.9347,-1.9363,-1.9379,-1.9505,-1.9432,-1.944,-1.9445,-1.9737,-1.9741,-1.9744,0,0,0,0,0,0,-1.8853,-1.8878,-1.9094,-1.9,-1.9028,-1.9096,-1.9152,-1.9162,-1.92,-1.9273,-1.9285,-1.9223,-1.9346,-1.9367,-1.9468,-1.951,-1.9444,-1.9452,-1.9734,-1.9738,-1.9742,-1.9755,0,0,0,0,0,0,-1.8844,-1.8875,-1.8914,-1.9,-1.9033,-1.918,-1.9154,-1.9167,-1.9215,-1.9214,-1.9301,-1.9313,-1.9346,-1.9455,-1.9476,-1.9521,-1.9459,-1.9731,-1.9736,-1.9741,-1.9751,-1.9759,-1.9766,0,0,0,0,0,-1.8834,-1.891,-1.8916,-1.8941,-1.9082,-1.9182,-1.92,-1.9238,-1.9218,-1.9258,-1.9305,-1.931,-1.9502,-1.9465,-1.9489,-1.9537,-1.9728,-1.9735,-1.9741,-1.9748,-1.9758,-1.9766,0,0,0,0,0,0,-1.8826,-1.8922,-1.8929,-1.9036,-1.9101,-1.9185,-1.9236,-1.9247,-1.9318,-1.9314,-1.9357,-1.9377,-1.9476,-1.9517,-1.9473,-1.9641,-1.9613,-1.9625,-1.961,-1.962,-1.9628,-1.9616,-1.9466,0,0,0,0,0,-1.8837,-1.891,-1.899,-1.9077,-1.9109,-1.9167,-1.9212,-1.9235,-1.9304,-1.9331,-1.9386,-1.9452,-1.9528,-1.9576,-1.965,-1.9758,-1.9777,-1.9803,-1.981,-1.9816,-1.9826,-1.9887,-1.99,-1.9765,-1.9764,-1.9764,0,0,-1.886,-1.8921,-1.8965,-1.9077,-1.913,-1.9205,-1.919,-1.9269,-1.9326,-1.9343,-1.9442,-1.9485,-1.9561,-1.9666,-1.9715,-1.9703,-1.9868,-1.9824,-1.9828,-1.9835,-1.9895,-1.9908,-1.9919,-1.9769,-1.9768,-1.9767,0,0,-1.894,-1.8994,-1.9073,-1.9127,-1.9207,-1.9246,-1.9265,-1.9349,-1.9378,-1.9478,-1.9493,-1.9561,-1.969,-1.9744,-1.9789,-1.9892,-1.99,-1.9915,-1.9954,-2.0013,-2.0024,-2.0034,-2.0072,-2.0084,-1.9924,-1.9924,-1.9924,0,-1.8958,-1.9072,-1.9111,-1.9192,-1.9241,-1.9262,-1.9342,-1.9392,-1.9493,-1.9526,-1.9512,-1.9676,-1.9729,-1.9848,-1.9873,-1.9908,-1.9932,-1.9905,-2.0019,-2.003,-2.0039,-2.0076,-2.009,-1.9926,-1.9925,-1.9925,-1.9925,0,-1.909,-1.9169,-1.9223,-1.9321,-1.9377,-1.9456,-1.9509,-1.956,-1.9579,-1.962,-1.9722,-1.9787,-1.9875,-1.9905,-1.9923,-2.0027,-2.0017,-2.0011,-1.9984,-2.0053,-2.0088,-2.0102,-1.9928,-1.9927,-1.9927,-1.9926,0,0,-1.9168,-1.9289,-1.9308,-1.9354,-1.9446,-1.9508,-1.9589,-1.9676,-1.972,-1.9789,-1.9858,-1.9968,-1.9964,-2.0014,-2.004,-2.0092,-2.0171,-2.008,-2.0082,-2.0095,-2.0291,-2.0295,-2.031,-2.0177,-2.018,-2.0182,-2.0284,0,-1.9259,-1.9405,-1.9444,-1.9568,-1.9642,-1.9664,-1.9735,-1.98,-1.984,-1.9909,-1.9953,-2.0031,-2.0018,-2.0049,-2.0102,-2.015,-2.0211,-2.0144,-2.0242,-2.0245,-2.0222,-2.0329,-2.0333,-2.0426,-2.0298,-2.0301,-2.0302,0,-1.9384,-1.9458,-1.9589,-1.9674,-1.9706,-1.9769,-1.9853,-1.9919,-1.9993,-2.0019,-2.0076,-2.0098,-2.0184,-2.0153,-2.0273,-2.0226,-2.0269,-2.0299,-2.0303,-2.0314,-2.0278,-2.0342,-2.0457,-2.0471,-2.0324,-2.0322,-2.0321,0,-1.9429,-1.956,-1.9657,-1.9695,-1.9796,-1.984,-1.9884,-1.9955,-2.0006,-2.0079,-2.0113,-2.0195,-2.0239,-2.0303,-2.0346,-2.0319,-2.0462,-2.0434,-2.0486,-2.0485,-2.0515,-2.0512,-2.0638,-2.0542,-2.0542,-2.0542,-2.0541,0,-1.9526,-1.9606,-1.9678,-1.9737,-1.9828,-1.9873,-1.9961,-2.0006,-2.007,-2.0138,-2.0162,-2.0226,-2.0279,-2.035,-2.0384,-2.0479,-2.0499,-2.0522,-2.053,-2.052,-2.0517,-2.0548,-2.0543,-2.0545,-2.0545,-2.0544,-2.0543,0,-1.9591,-1.9642,-1.9749,-1.9836,-1.986,-1.9923,-1.9998,-2.0057,-2.0098,-2.0185,-2.0208,-2.0273,-2.0359,-2.0408,-2.0515,-2.0538,-2.0643,-2.0648,-2.0618,-2.0622,-2.0671,-2.0666,-2.0821,-2.0844,-2.0733,-2.0734,-2.0735,0,-1.9649,-1.9711,-1.9806,-1.9854,-1.9899,-1.9976,-2.0029,-2.0076,-2.0129,-2.0219,-2.0267,-2.0354,-2.0426,-2.0561,-2.0618,-2.0701,-2.0708,-2.0757,-2.072,-2.0709,-2.0709,-2.0705,-2.0712,-2.0763,-2.0764,-2.0764,-2.0765,0,-1.9748,-1.9771,-1.9846,-1.993,-1.9992,-2.0061,-2.0129,-2.0167,-2.0225,-2.0284,-2.0372,-2.0428,-2.0539,-2.0625,-2.0713,-2.0758,-2.0772,-2.0777,-2.0793,-2.0783,-2.0763,-2.0775,-2.0636,-2.0772,-2.0772,-2.0771,-2.0771,-2.077,-1.9812,-1.9869,-1.9945,-2.0028,-2.0085,-2.0148,-2.0208,-2.0258,-2.0333,-2.0427,-2.0451,-2.0543,-2.0618,-2.0737,-2.0785,-2.0858,-2.0849,-2.0873,-2.0879,-2.0884,-2.0886,-2.0752,-2.0874,-2.0874,-2.0874,-2.0873,-2.0873,0,-1.9912,-1.9963,-2.0039,-2.0134,-2.02,-2.0209,-2.0285,-2.0339,-2.0421,-2.0489,-2.056,-2.0662,-2.0747,-2.0811,-2.0898,-2.0944,-2.0953,-2.0965,-2.0962,-2.0973,-2.0888,-2.0865,-2.0957,-2.0957,-2.0957,-2.0957,-2.0957,-2.0957,-1.9972,-2.0069,-2.0102,-2.0228,-2.0278,-2.037,-2.0413,-2.0472,-2.0527,-2.0641,-2.0711,-2.0753,-2.0821,-2.0913,-2.0991,-2.1008,-2.1039,-2.105,-2.1068,-2.0988,-2.0978,-2.097,-2.0949,-2.1057,-2.1057,-2.1147,-2.1148,-2.1148]},{"header":{"parameterUnit":"m.s-1","parameterCategory":1,"la1":30.2991,"la2":30.254,"lo1":-89.0895,"lo2":-89.0444,"dy":0.0017,"dx":0.0017,"nx":28,"ny":28,"refTime":"2026-01-04T09:00:00:Z","depth":0,"parameterNumber":3,"parameterNumberName":"V-component_of_WINDS"},"data":[0,0,0,0,0,0,0,0,0,0,0,0,0,0,0,0,0,0,0,0,0,0,0,0,0,0,0,0,0,0,0,0,0,0,0,0,0,0,0,0,0,0,0,0,0,0,0,0,0,0,0,0,0,0,0,0,0,0,1.8333,1.8332,0,1.8214,1.8212,1.8211,1.8113,1.8112,1.8111,1.811,1.798,1.7977,1.7975,0,0,0,0,0,0,0,0,0,0,0,0,0,1.8471,1.8469,1.8333,1.8332,1.833,1.8214,1.8212,1.8211,1.8113,1.8112,1.811,1.8109,1.798,1.7977,1.7974,0,0,0,0,0,0,0,0,0,0,0,0,0,1.8387,1.8468,1.8334,1.8268,1.8261,1.8214,1.8212,1.821,1.8113,1.8112,1.811,1.8109,1.7981,1.7978,1.7974,1.7981,0,0,1.7962,1.7961,0,0,0,0,0,0,0,0,1.8392,1.8382,1.8279,1.8272,1.8264,1.8177,1.8213,1.8133,1.8114,1.8169,1.811,1.8108,1.8046,1.8037,1.8017,1.7975,1.7969,1.7962,1.796,1.7958,1.7957,0,0,0,0,0,0,0,1.8398,1.8387,1.8286,1.8278,1.8269,1.8242,1.8229,1.8197,1.8117,1.8164,1.8157,1.8144,1.8041,1.8021,1.8013,1.7967,1.7962,1.7959,1.7956,1.7955,1.7924,1.7926,0,0,0,0,0,0,1.8415,1.8392,1.829,1.8282,1.8326,1.8241,1.8226,1.8206,1.8117,1.8102,1.8146,1.814,1.8028,1.8018,1.8009,1.8011,1.7958,1.7955,1.7952,1.7923,1.7924,1.7926,0,0,0,0,0,0,1.8418,1.8407,1.8294,1.8335,1.8319,1.824,1.8219,1.8205,1.8184,1.8103,1.8088,1.814,1.8027,1.8014,1.7989,1.8005,1.7953,1.7949,1.7921,1.7923,1.7925,1.8016,0,0,0,0,0,0,1.8423,1.8409,1.8412,1.8336,1.8317,1.8279,1.822,1.8203,1.8179,1.8171,1.8094,1.808,1.8025,1.7995,1.7985,1.7999,1.7946,1.7919,1.7922,1.7925,1.8011,1.8021,1.8029,0,0,0,0,0,1.8428,1.844,1.8413,1.8401,1.832,1.828,1.8269,1.8208,1.8181,1.8182,1.8131,1.8082,1.8005,1.7994,1.7981,1.7994,1.7918,1.7921,1.7924,1.8007,1.8019,1.8029,0,0,0,0,0,0,1.8517,1.8429,1.8397,1.8386,1.8342,1.8264,1.8264,1.8222,1.8182,1.8176,1.8099,1.8082,1.8066,1.8027,1.8016,1.7996,1.7955,1.7956,1.8022,1.8033,1.8042,1.8051,1.7943,0,0,0,0,0,1.8536,1.8513,1.8437,1.8434,1.8414,1.8343,1.8323,1.828,1.823,1.821,1.8156,1.8108,1.8072,1.805,1.8013,1.8005,1.7987,1.8008,1.8017,1.8025,1.8027,1.802,1.8028,1.7937,1.7937,1.7937,0,0,1.8573,1.8522,1.8512,1.845,1.8411,1.8388,1.8328,1.8305,1.8286,1.8205,1.818,1.8139,1.8079,1.8063,1.8053,1.803,1.8048,1.8029,1.8036,1.8033,1.8024,1.8033,1.804,1.7939,1.7939,1.7938,0,0,1.8629,1.8589,1.8583,1.8546,1.8488,1.8441,1.844,1.8369,1.834,1.8313,1.8252,1.8228,1.8169,1.8129,1.8101,1.8145,1.8099,1.8135,1.8182,1.8176,1.8183,1.8189,1.8204,1.8211,1.8137,1.8137,1.8137,0,1.8682,1.8647,1.8584,1.8566,1.854,1.847,1.8462,1.8428,1.836,1.8343,1.8319,1.8245,1.8199,1.8173,1.8184,1.8164,1.8159,1.8143,1.8188,1.8193,1.8197,1.8211,1.8217,1.8141,1.8141,1.814,1.814,0,1.8715,1.8691,1.8693,1.8633,1.8607,1.8594,1.8528,1.8509,1.8469,1.8424,1.8398,1.8342,1.8292,1.8283,1.8242,1.8251,1.8239,1.8203,1.8159,1.8212,1.8224,1.8228,1.8148,1.8147,1.8145,1.8144,0,0,1.8822,1.873,1.8731,1.8704,1.8636,1.8615,1.8598,1.8553,1.8539,1.8494,1.8478,1.8431,1.8397,1.8366,1.8319,1.8314,1.8353,1.8278,1.8275,1.8294,1.8359,1.8387,1.8394,1.8322,1.8323,1.8324,1.8364,0,1.8867,1.8837,1.8781,1.8767,1.8744,1.8677,1.8663,1.8619,1.8577,1.855,1.8502,1.847,1.8428,1.8409,1.8401,1.835,1.8365,1.8346,1.8304,1.8303,1.8321,1.84,1.8429,1.847,1.8368,1.8369,1.8369,0,1.8916,1.8879,1.8864,1.8799,1.8787,1.8776,1.873,1.8706,1.8654,1.8624,1.859,1.8541,1.8518,1.848,1.8447,1.8436,1.8415,1.8387,1.8387,1.838,1.8339,1.8395,1.8481,1.8488,1.8376,1.8375,1.8375,0,1.8996,1.8942,1.8927,1.8905,1.8829,1.8822,1.8789,1.8736,1.8713,1.8673,1.8657,1.8613,1.8589,1.8556,1.8495,1.8473,1.8468,1.8425,1.8441,1.8443,1.8442,1.8443,1.8527,1.843,1.843,1.843,1.843,0,1.9052,1.9045,1.8962,1.8952,1.8943,1.8878,1.8869,1.883,1.8784,1.8764,1.8703,1.8685,1.8606,1.8579,1.8531,1.851,1.85,1.8473,1.8461,1.8479,1.8482,1.8464,1.8459,1.8432,1.8431,1.8431,1.8431,0,1.9139,1.9083,1.9062,1.8992,1.8975,1.8971,1.891,1.8897,1.8853,1.8829,1.8819,1.8748,1.8713,1.865,1.8595,1.8563,1.8552,1.853,1.8571,1.8563,1.8583,1.8582,1.8657,1.8663,1.8564,1.8565,1.8566,0,1.9178,1.9172,1.9103,1.9087,1.9058,1.9032,1.9009,1.8945,1.8923,1.8865,1.8859,1.8819,1.8784,1.873,1.8672,1.8631,1.8607,1.8636,1.86,1.8619,1.8607,1.8608,1.8607,1.8644,1.8646,1.8647,1.8648,0,1.9254,1.9227,1.9198,1.9159,1.9134,1.91,1.9062,1.9052,1.8978,1.8956,1.8922,1.8895,1.8841,1.8802,1.8752,1.8716,1.8669,1.866,1.8661,1.8679,1.8703,1.869,1.8593,1.8658,1.8657,1.8656,1.8656,1.8655,1.9317,1.9309,1.9261,1.923,1.9196,1.9162,1.9148,1.9103,1.9073,1.9027,1.899,1.8957,1.8905,1.8834,1.8801,1.8773,1.8751,1.8753,1.8754,1.8755,1.8763,1.8709,1.8764,1.8763,1.8763,1.8763,1.8762,0,1.939,1.9356,1.9329,1.928,1.9256,1.9217,1.9174,1.9155,1.9129,1.9086,1.9054,1.9013,1.8976,1.8916,1.8873,1.8863,1.884,1.8853,1.8853,1.8845,1.8784,1.8788,1.8872,1.8872,1.8872,1.8872,1.8872,1.8872,1.9425,1.941,1.9377,1.9344,1.9309,1.9279,1.9258,1.9226,1.9192,1.9151,1.9121,1.9083,1.9033,1.8986,1.8949,1.8932,1.8919,1.8939,1.8916,1.886,1.885,1.884,1.8842,1.8937,1.8937,1.8979,1.8979,1.898]}]]